Location: Llanfihangel-Ystrad
(52.1833°N, 4.1667°W)
Time: 08:56:05
(UTC+00:00)

H-2A R/B - Pass Details

Date: 17 February 2020
Orbit: 503 x 540 km, 97.3° (Epoch: 28 February)

Event Time Altitude Azimuth Distance (km) Brightness Sun altitude
Rises 06:28:37 0° 15° (NNE) 2,661 6.4 -9.9°
Reaches altitude 10° 06:30:45 10° 18° (NNE) 1,762 5.5 -9.6°
Maximum altitude 06:34:32 69° 102° (ESE) 554 3.1 -9.0°
Drops below altitude 10° 06:38:15 10° 186° (S) 1,727 5.4 -8.4°
Sets 06:40:20 0° 189° (S) 2,603 6.3 -8.1°
